GFSSW_925_temp_159.txt.gz
Temp
11 11 11 11 11 11 11 11 11 11 11 11 11 11 12 12 13 14 16 15 15 14 14 16 16 17 18 19 19 20 19 19 21 22 22 23 23 24 25 24 24 25 26 27 27
11 11 11 11 11 11 11 11 11 11 11 11 12 12 12 13 15 17 15 14 13 13 16 16 17 17 18 19 19 18 19 20 22 22 20 20 20 19 20 21 22 23 25 26 26
11 11 10 10 10 10 10 11 11 11 11 11 12 12 12 13 17 15 13 13 13 14 15 15 15 15 16 18 17 17 17 19 19 19 19 18 18 18 17 17 20 21 22 24 25
10 10 10 10 10 10 10 11 11 10 11 11 11 11 12 14 18 13 12 13 14 14 14 14 13 15 14 14 15 13 17 17 17 17 17 16 17 16 16 17 19 20 21 22 22
10 9 9 10 10 10 10 10 10 11 11 10 10 11 13 17 15 13 12 12 13 13 14 14 15 15 14 14 15 14 16 16 16 16 16 16 15 15 16 18 18 18 19 20 21
9 9 9 9 9 10 10 10 10 10 10 10 10 12 14 17 13 13 12 13 14 14 15 15 16 16 15 15 14 15 14 14 15 16 18 17 16 15 17 19 19 18 18 19 19
9 8 8 8 9 10 9 9 9 10 10 11 12 12 15 14 13 13 13 14 14 14 16 15 15 15 14 13 14 13 13 16 19 19 18 16 15 17 19 18 16 16 16 18 19
8 8 8 9 10 10 10 10 10 10 11 11 11 13 14 12 13 14 14 14 14 13 14 13 14 14 13 14 14 15 15 16 18 18 17 17 13 17 18 18 17 16 15 16 18
8 9 9 10 11 11 11 10 11 11 11 11 13 14 14 12 14 13 13 15 14 14 14 13 14 14 14 14 16 16 15 16 16 18 17 16 14 17 18 18 18 18 18 18 18
9 9 9 9 10 11 11 11 11 12 12 12 14 16 14 15 13 12 13 13 15 14 14 14 14 14 15 15 15 14 14 14 15 16 17 15 15 17 19 19 18 18 18 18 18
9 9 9 9 10 11 11 12 15 15 14 14 14 15 15 14 12 14 13 14 15 15 16 15 14 16 16 15 15 14 14 14 16 17 16 15 16 17 18 18 17 17 17 17 16
9 9 9 9 9 11 11 12 8 6 13 14 13 14 13 13 14 15 13 14 15 16 15 16 16 16 15 14 14 14 15 15 15 17 16 16 16 18 17 17 17 16 16 13 13
8 9 10 9 9 9 8 7 6 7 12 14 14 14 14 13 15 15 15 15 15 15 16 15 16 15 14 14 14 15 15 15 14 15 16 17 16 17 18 17 16 15 15 15 14
8 8 9 9 9 9 8 6 7 7 13 14 14 14 14 14 14 14 14 14 14 14 14 15 16 14 14 14 15 14 15 14 14 14 13 16 13 16 17 17 16 15 15 14 13
8 8 8 9 10 11 7 6 6 8 15 14 14 13 15 13 14 14 14 14 14 15 14 16 14 14 13 14 14 13 14 13 13 14 14 14 14 15 18 16 15 14 14 14 14
8 7 8 9 9 7 6 6 8 12 15 15 14 14 14 14 14 14 13 14 14 13 14 14 15 13 14 14 13 14 13 14 14 14 11 14 14 14 16 15 15 14 14 14 13
8 7 7 7 9 6 6 9 10 14 14 15 14 13 14 14 14 13 14 14 14 12 14 14 15 14 13 13 14 13 13 10 11 11 11 15 13 14 16 15 14 14 15 14 13
8 7 6 6 6 6 8 12 12 15 16 13 13 13 12 13 14 13 13 14 13 13 12 12 13 13 13 12 12 12 12 10 9 10 12 14 12 14 15 15 15 15 15 14 13
8 8 7 6 5 6 12 12 15 15 12 13 14 13 14 12 12 12 13 14 13 12 11 10 11 13 12 13 12 12 10 12 10 11 11 12 14 15 16 15 16 14 14 13 13
9 9 8 6 6 8 9 12 14 12 11 11 13 13 12 14 12 10 12 14 12 12 11 10 8 12 12 11 12 11 12 10 9 8 9 12 12 13 14 14 14 13 13 13 12
9 10 7 6 6 11 10 13 12 11 10 11 12 12 13 11 10 11 10 12 12 11 11 9 8 11 11 11 11 11 9 9 8 9 8 9 11 15 13 13 12 12 12 12 12
9 9 6 6 8 9 12 12 7 10 10 10 9 10 11 12 9 10 10 11 11 11 10 10 7 8 10 12 10 10 9 8 8 8 7 8 9 13 14 13 13 12 12 12 12
8 8 6 7 9 10 8 9 9 9 10 10 10 10 10 10 8 9 10 11 11 10 9 9 8 7 10 10 9 7 9 7 7 7 7 8 9 14 13 13 13 12 11 12 11
7 9 7 6 8 10 8 9 9 9 8 9 9 9 9 8 10 8 9 10 10 10 10 8 7 7 8 9 9 7 7 8 8 6 8 9 10 11 13 13 12 12 11 11 11
6 7 9 9 8 7 5 6 8 8 8 8 8 8 8 6 8 9 10 10 10 10 9 8 6 8 8 8 8 8 8 7 6 7 6 8 9 10 11 12 12 11 11 10 10
4 5 5 6 5 5 5 6 9 9 7 7 7 10 10 7 8 8 9 8 7 9 6 6 6 8 7 9 9 9 9 9 7 7 7 7 7 11 11 12 11 10 10 10 9
5 4 5 6 4 5 6 9 9 8 8 9 9 9 8 9 10 10 9 9 8 6 5 5 6 6 6 9 9 7 10 10 10 10 9 7 9 11 10 11 10 10 9 9 9

GFSSW_925_temp_165.txt.gz
Temp
10 10 10 10 10 11 11 11 11 12 11 12 12 12 12 12 13 13 14 14 15 15 16 16 17 17 17 17 18 17 13 14 16 16 16 17 15 17 17 16 16 17 16 17 18
10 10 10 10 10 11 11 11 11 12 12 12 12 12 12 12 13 13 14 14 14 14 15 16 15 15 14 17 16 14 13 15 17 16 15 16 15 14 14 14 15 15 16 17 17
10 10 9 10 10 10 10 10 11 11 11 11 12 12 12 13 13 13 13 13 14 15 15 15 15 15 15 15 15 14 13 15 15 16 15 14 14 15 14 13 14 14 15 16 17
9 9 9 9 9 9 9 10 10 10 10 11 11 12 12 13 15 12 13 14 14 15 15 15 14 13 14 14 15 13 14 14 14 15 14 13 14 13 13 14 15 14 15 15 15
9 9 9 9 9 9 9 9 10 10 11 11 11 12 13 14 12 13 14 14 14 14 15 14 13 13 14 14 14 13 13 14 14 14 13 14 13 13 13 14 15 15 15 14 15
9 10 11 10 9 10 10 9 10 11 11 10 12 12 13 12 14 14 14 14 14 15 15 15 14 14 13 13 13 13 12 12 13 13 13 14 13 15 15 14 14 15 15 15 15
9 10 11 12 11 11 11 11 12 12 12 12 13 13 12 12 14 14 14 14 14 14 14 14 14 13 13 12 13 13 11 12 13 14 14 16 14 14 14 14 14 14 12 13 13
9 10 11 12 12 11 11 12 12 12 12 13 13 13 11 13 14 14 14 14 14 14 14 14 14 13 13 13 13 12 12 11 14 15 15 15 11 14 14 13 13 12 11 11 11
10 10 11 12 12 12 11 12 12 13 13 13 13 14 12 14 14 14 14 14 14 14 14 14 14 12 12 10 9 11 9 11 12 14 14 15 11 13 13 14 13 11 10 11 12
11 10 11 11 12 12 12 13 13 13 14 14 14 13 13 13 13 13 14 14 14 14 13 13 11 10 10 8 9 11 10 11 10 13 14 12 11 12 14 14 12 11 10 10 11
11 10 10 11 11 13 13 12 10 11 12 12 13 14 14 14 14 13 14 14 14 13 11 12 10 9 10 11 13 12 11 10 11 13 12 12 11 13 14 13 12 11 10 10 11
10 10 11 11 10 11 13 7 7 8 10 14 14 13 14 14 13 13 14 12 13 11 12 12 10 13 14 14 13 12 10 10 11 13 13 11 12 13 13 13 11 10 10 11 10
10 10 11 10 10 9 8 7 8 8 9 13 14 14 13 13 13 13 13 13 13 11 12 11 13 14 14 13 12 12 11 11 11 11 12 11 10 11 13 13 12 11 12 12 11
10 10 10 11 10 10 8 7 8 8 9 13 13 13 13 14 13 15 14 13 13 12 13 12 14 14 13 12 12 10 12 12 11 9 7 11 6 10 12 12 12 11 10 11 10
10 9 10 9 9 8 8 7 7 8 12 14 13 14 14 13 14 13 14 13 11 12 12 11 13 13 12 13 13 11 12 11 10 9 8 10 6 8 11 13 11 10 11 11 10
10 9 10 9 8 8 7 7 8 9 10 13 13 14 13 13 14 13 13 13 12 12 11 10 12 12 12 13 12 12 11 9 9 8 1 7 9 8 11 12 11 12 9 10 9
10 9 9 8 7 7 7 7 9 10 14 14 13 14 13 13 13 13 12 10 10 8 9 10 11 12 12 11 11 9 6 2 3 2 3 9 8 8 11 11 11 9 9 8 8
10 9 8 8 8 8 8 7 10 12 13 14 14 13 13 13 13 12 11 10 11 10 5 6 8 12 12 11 11 10 7 2 4 2 5 9 7 8 11 10 11 11 10 9 8
10 9 8 8 8 7 6 7 9 12 12 11 12 12 13 12 10 11 11 10 12 11 7 3 8 11 12 12 10 9 7 8 5 5 2 5 7 10 10 10 10 9 8 7 8
10 9 8 8 8 7 5 9 11 12 11 11 11 13 12 11 10 8 9 11 11 11 8 8 3 8 10 11 10 9 9 5 -0 1 4 6 6 8 8 8 10 8 8 7 7
9 6 7 8 8 5 6 9 12 11 11 10 11 10 11 11 7 8 7 10 11 9 7 6 4 6 8 8 7 7 7 6 4 3 4 5 7 9 9 9 9 8 7 7 7
9 6 7 7 6 4 6 11 9 11 10 10 9 9 9 10 7 6 8 9 11 10 8 7 2 3 5 9 9 8 4 3 3 3 1 2 6 10 9 9 9 10 8 8 8
7 7 7 7 6 5 7 10 10 10 10 9 9 10 10 9 6 6 8 10 9 9 6 7 2 0 3 5 5 5 7 3 -0 -1 5 3 6 10 9 8 9 8 8 8 8
5 7 6 3 6 8 7 8 9 9 9 10 9 9 8 7 8 5 8 10 9 9 10 9 4 2 3 3 -1 1 -0 4 4 5 6 6 6 8 8 8 8 8 8 6 7
5 7 8 7 6 5 7 7 8 8 8 8 6 7 7 3 6 6 7 8 9 9 9 6 4 3 5 6 5 5 4 4 3 5 4 6 6 7 8 7 7 8 7 8 7
5 6 4 4 6 6 7 6 7 7 6 6 6 8 7 3 6 6 6 6 5 6 3 1 4 5 5 5 5 5 6 6 5 6 5 6 6 7 7 7 7 6 8 8 7
6 5 7 6 5 6 6 8 7 7 7 9 7 6 6 7 8 7 6 6 5 3 3 2 1 1 4 5 5 4 5 6 6 6 5 5 5 6 5 7 7 7 7 7 6

GFSSW_925_temp_168.txt.gz
Temp
10 10 10 10 10 11 11 11 11 12 11 11 12 12 12 12 13 13 14 14 14 15 16 16 16 16 17 16 17 15 13 13 15 15 15 15 14 15 15 15 14 15 14 15 17
10 10 10 10 10 10 10 11 11 12 12 12 11 11 12 13 13 14 14 14 14 14 15 15 14 14 13 15 15 14 12 14 15 15 14 14 14 13 14 12 14 13 15 17 17
10 9 9 9 10 10 9 10 10 11 11 11 11 11 12 13 13 13 13 14 14 15 15 15 14 14 14 15 15 14 12 14 14 15 14 14 13 14 14 13 13 13 14 14 15
9 9 9 9 9 9 9 9 10 10 10 10 11 12 13 13 14 13 14 14 14 15 15 14 13 13 13 14 14 13 13 14 14 14 13 12 13 13 13 13 13 13 13 13 13
9 10 9 9 10 11 10 9 10 10 11 10 12 13 13 12 12 13 14 14 14 15 14 14 13 13 13 13 13 13 13 13 12 12 12 12 12 12 12 13 13 13 13 12 12
9 10 11 10 11 12 12 11 11 11 11 11 13 13 13 11 13 14 14 14 14 14 14 14 13 13 13 13 13 12 12 11 12 12 13 13 12 13 13 13 13 13 11 11 11
9 11 11 11 12 12 12 12 12 12 12 13 13 13 11 11 13 14 14 14 14 14 13 13 13 13 12 12 12 12 11 11 12 14 13 13 12 13 14 12 12 11 12 12 11
9 10 11 12 12 12 13 13 12 13 13 13 13 14 11 13 14 14 14 14 14 14 14 14 14 13 12 12 11 11 11 11 13 13 14 15 10 13 13 12 12 12 9 9 12
10 10 11 11 12 12 13 13 13 13 13 14 14 13 12 14 14 14 14 14 14 14 14 14 13 12 11 10 8 10 8 11 11 13 13 13 10 12 12 12 11 10 9 11 10
11 10 11 11 12 13 13 13 13 14 14 14 14 13 13 13 13 13 14 14 13 14 12 12 9 9 8 8 9 11 9 10 9 12 12 11 10 11 11 12 10 9 9 10 10
11 11 11 11 11 13 13 13 11 12 12 12 12 13 13 13 13 13 14 13 13 12 11 11 9 10 10 9 11 12 11 9 9 11 11 10 10 11 13 11 10 8 8 10 11
11 11 11 10 11 12 12 7 7 8 11 12 13 13 13 13 13 13 13 12 12 11 12 10 9 11 12 13 13 12 10 9 9 12 11 10 10 12 12 11 10 9 9 11 11
11 11 11 11 10 10 8 7 7 8 10 13 14 14 13 13 13 12 13 12 12 11 12 10 12 13 13 13 12 11 10 9 10 10 10 10 8 9 11 12 10 10 10 11 10
11 11 11 11 10 9 7 7 8 8 7 13 13 13 13 13 13 14 13 13 12 12 11 11 12 13 13 12 12 10 12 11 10 8 7 9 5 8 10 10 11 10 9 10 10
10 11 10 10 9 8 7 7 7 8 12 14 13 13 13 13 13 13 13 12 11 12 11 11 12 12 12 12 12 10 11 10 10 8 8 8 4 6 9 11 10 9 9 10 9
10 10 10 9 8 7 7 7 8 9 11 13 13 13 12 12 13 12 12 12 12 11 10 10 11 12 11 12 12 11 10 8 6 6 1 6 7 6 9 9 9 10 10 9 7
10 10 9 8 8 7 7 7 9 10 13 13 13 13 13 12 13 12 11 10 10 8 8 9 11 11 12 11 11 9 6 2 3 1 3 7 7 7 9 10 9 10 9 7 6
10 10 9 8 8 8 8 7 10 11 12 13 13 13 12 13 11 12 11 9 10 10 5 5 8 11 12 11 10 9 7 3 5 2 5 8 6 7 9 9 10 10 8 7 6
10 9 8 8 8 8 6 7 9 10 12 12 12 12 12 12 10 10 10 9 11 9 8 3 8 9 11 11 10 9 6 7 5 5 1 4 6 8 8 8 8 8 7 6 6
10 8 8 8 8 7 5 9 11 12 11 11 12 12 11 11 10 8 8 10 10 10 8 7 4 8 9 10 10 9 8 5 -1 1 3 5 5 8 8 7 7 7 6 6 6
9 5 7 7 8 4 6 8 11 11 11 10 10 11 11 10 7 7 7 10 10 8 7 5 4 6 8 8 7 6 7 4 2 2 2 3 6 6 8 8 7 7 6 6 7
7 5 7 7 5 6 6 9 11 10 10 10 9 10 9 9 6 6 8 8 10 8 8 6 1 1 5 7 8 8 4 2 3 1 2 3 6 9 8 8 8 8 7 6 7
4 6 6 7 5 5 6 10 10 9 9 8 9 9 9 9 5 6 8 9 8 8 6 7 2 -0 4 4 5 4 5 1 -1 -1 4 4 6 8 8 9 8 7 6 7 6
4 7 5 3 5 6 6 7 8 9 9 9 9 9 8 7 7 5 7 9 8 8 10 8 3 2 4 3 -1 2 1 4 2 1 6 5 6 7 8 8 8 7 7 6 4
5 6 8 7 5 4 4 5 8 8 8 8 6 7 7 2 6 6 6 7 8 9 8 6 3 2 4 5 4 3 3 3 1 5 4 6 6 6 7 7 7 6 6 5 5
6 6 3 3 6 6 6 5 8 8 7 6 6 7 6 4 6 5 5 5 5 5 2 1 5 4 4 5 5 5 5 5 4 4 4 4 5 7 6 4 5 5 5 5 5
6 6 6 6 4 5 5 7 8 8 8 8 7 6 6 6 7 7 6 5 6 3 2 1 2 2 3 5 5 4 5 5 5 4 3 3 5 5 5 5 4 3 3 4 5

GFSSW_925_temp_171.txt.gz
Temp
10 10 10 10 10 10 10 11 11 12 11 11 12 12 12 12 13 13 13 14 14 14 15 16 16 16 16 15 16 14 12 12 15 15 14 14 13 15 14 14 13 15 14 15 17
10 10 10 10 10 10 10 10 10 11 11 12 11 11 12 12 13 13 14 14 14 14 15 15 14 14 13 14 14 13 11 13 14 14 14 14 13 13 13 12 14 13 14 16 16
10 9 9 9 9 10 9 9 9 10 10 10 11 12 12 12 13 13 13 14 14 15 15 15 14 14 14 14 13 13 12 13 14 14 13 13 13 13 13 13 13 13 13 12 13
9 9 9 9 9 9 9 9 10 10 10 10 11 12 13 13 14 13 13 13 14 15 15 14 12 13 13 13 13 13 13 13 13 13 12 12 13 13 12 13 13 12 11 11 10
9 9 10 9 10 9 9 10 10 10 10 10 12 13 13 11 12 13 14 14 14 15 14 13 12 12 12 12 13 13 12 12 12 11 11 12 11 12 12 12 12 11 12 11 11
9 9 10 10 11 11 11 11 11 11 11 12 13 13 13 11 13 13 14 14 14 14 13 13 13 13 12 12 12 12 11 11 11 12 12 13 12 12 13 13 12 11 11 11 11
9 9 11 11 11 12 12 12 12 12 12 12 13 13 11 11 13 14 14 14 14 14 13 13 13 13 12 12 12 12 11 11 12 13 13 12 11 11 12 12 11 10 10 11 11
10 10 11 11 12 12 12 12 12 13 13 13 13 14 11 13 13 14 14 14 14 14 14 13 13 12 12 12 10 11 10 11 13 12 14 13 9 12 12 12 11 10 9 9 10
11 10 11 11 12 12 13 13 13 13 13 14 13 13 12 13 13 13 14 13 13 14 14 14 13 11 10 9 8 9 8 11 11 12 12 13 9 11 11 11 10 9 8 9 9
11 11 11 11 12 13 13 13 13 14 14 14 14 12 12 12 13 13 13 13 13 13 12 11 8 8 8 8 10 11 9 10 9 11 11 10 9 11 10 10 9 8 7 8 9
11 11 11 11 11 12 13 13 11 12 12 12 12 12 13 13 13 13 13 13 13 11 11 10 9 10 11 9 11 11 10 9 9 10 10 9 9 10 11 10 8 8 7 8 9
11 11 11 10 11 12 12 7 7 8 11 12 13 13 13 13 13 13 13 12 12 11 11 9 9 11 11 11 11 11 10 8 9 10 11 9 9 10 10 11 11 9 7 8 10
10 11 11 10 10 10 9 7 7 8 10 13 13 13 13 13 13 13 12 12 12 11 11 10 12 12 12 12 12 11 10 9 9 9 9 9 8 8 10 11 10 8 9 9 10
10 10 11 11 10 8 7 7 8 8 6 12 12 13 13 13 12 13 13 13 12 11 11 10 11 13 12 12 11 10 11 11 10 8 7 9 6 7 8 8 10 7 8 9 10
10 10 10 10 9 7 7 7 8 8 11 13 12 13 13 12 12 12 13 12 11 11 10 11 12 12 11 11 12 10 11 10 9 7 8 7 4 6 8 10 8 9 8 9 9
10 10 10 9 9 7 7 8 8 9 10 12 12 12 12 12 12 12 12 11 11 11 10 9 11 11 11 11 11 10 9 6 5 5 1 5 6 6 8 9 9 9 9 8 6
10 10 9 9 7 8 8 7 8 9 13 13 13 12 12 12 12 11 11 10 10 8 9 9 10 11 12 11 10 9 6 3 4 2 3 6 6 7 9 8 9 10 9 7 6
10 9 8 8 8 8 8 7 9 12 11 12 12 12 12 12 11 11 10 9 9 9 4 5 9 11 11 11 10 8 7 3 6 2 5 6 6 7 7 9 9 9 8 6 6
9 9 8 7 8 8 6 6 10 10 12 11 11 11 11 11 9 10 10 8 10 8 8 3 8 9 10 10 10 8 6 7 5 4 1 4 5 7 7 8 8 7 6 6 5
9 8 7 7 7 7 5 10 11 11 10 11 12 12 11 11 10 7 8 9 10 9 8 6 4 8 8 10 8 9 6 5 -1 1 3 4 4 8 8 7 7 6 6 8 6
9 5 7 7 7 4 6 7 10 10 11 10 10 10 10 10 7 8 7 9 10 8 6 5 4 7 7 8 7 6 6 3 2 1 2 2 5 5 7 8 7 5 7 6 6
6 5 6 6 4 4 5 8 10 9 9 9 9 10 9 8 6 6 8 8 9 8 8 6 1 1 5 7 6 7 2 1 1 0 -2 2 5 8 7 8 7 8 7 5 5
6 4 6 6 5 6 6 9 9 9 8 8 8 9 9 8 6 6 8 9 8 8 6 5 1 1 5 4 5 4 3 0 -3 -2 3 3 6 6 7 8 8 7 7 7 5
5 7 5 4 4 5 5 7 8 9 8 8 8 8 8 8 7 5 7 8 8 8 9 8 2 3 5 3 -1 2 -1 3 2 2 5 6 7 8 8 7 7 6 6 4 4
5 6 7 6 4 4 3 5 7 7 8 8 7 7 7 3 6 6 6 7 8 9 8 5 3 2 4 5 2 2 1 1 2 5 4 6 5 7 7 7 6 4 3 4 3
6 6 4 4 4 4 5 5 8 7 6 6 7 7 6 5 7 5 5 5 5 4 2 0 4 4 4 5 5 5 5 5 4 4 4 5 5 6 6 4 4 3 3 3 3
6 5 6 6 3 3 5 7 8 8 7 8 8 7 5 7 6 7 6 5 5 3 1 2 2 2 2 3 4 4 5 5 5 4 3 3 5 4 4 4 4 4 3 3 3